(498382) = 2007 WV46

Discovered at Mount Lemmon on 2007-11-03 by Mt. Lemmon Survey.

Orbit

Orbit type: Main Belt

Note: WebGL enabled browser required.

epoch2023-09-13.0
epoch JD2460200.5
perihelion date2019-01-28.74000
perihelion JD2458512.24000
argument of perihelion (°)106.94401
ascending node (°)316.14849
inclination (°)7.95026
eccentricity0.0854995
perihelion distance (AU)2.8628771
Tisserand w.r.t. Jupiter3.2
ΔV w.r.t. Earth (km/sec)10.8
semimajor axis (AU)3.1305364
mean anomaly (°)300.41046
mean daily motion (°/day)0.17794090
aphelion distance (AU)3.398
period (years)5.54
P-vector [x]0.44618172
P-vector [y]0.75944111
P-vector [z]0.47346708
Q-vector [x]-0.88979770
Q-vector [y]0.43309540
Q-vector [z]0.14383474
absolute magnitude16.72
phase slope0.15
uncertainty0
referenceMPO 780330
observations used162
oppositions9
arc length (days)5825
first opposition used2007
last opposition used2023
residual rms (arc-secs)0.64
perturbers coarse indicatorM-v
perturbers precise indicator003Ek
first observation date used2007-11-03.0
last observation date used2023-10-15.0
computer nameMPCLINUX
JD of orbit computation2458011.197401
perihelion JD uncertainty (days)3.0008E-04
argument of perihelion uncertainty (°)5.3009E-05
ascending node uncertainty (°)2.1786E-05
inclination uncertainty (°)4.4807E-06
eccentricity uncertainty 2.8831E-08
perihelion distance uncertainty (AU)1.1941E-07
Minimum Orbit Intersection Distances (in AU)
for orbit epoch: 2460200.5, reference: E2023-U02
Mercury2.55519
Venus2.15145
Earth1.88831
Mars1.31782
Jupiter1.86168
Saturn6.14743
Uranus15.2558
Neptune26.9042

Observations

163 total observations over interval: 2007 11 03.36411 – 2023 10 15.309907
These data are available for download (format description).

Date (UT) J2000 RA J2000 Dec Magn Location Ref
2007 11 03.36411 03 23 22.59 +30 50 37.5 20.2 V G96 – Mt. Lemmon Survey MPS 312577
2007 11 03.37074 03 23 22.27 +30 50 36.8 20.3 V G96 – Mt. Lemmon Survey MPS 312577
2007 11 03.37749 03 23 21.91 +30 50 35.9 20.2 V G96 – Mt. Lemmon Survey MPS 312577
2007 11 03.38407 03 23 21.55 +30 50 35.3 20.3 V G96 – Mt. Lemmon Survey MPS 312577
2007 11 20.22088 03 08 12.01 +29 58 57.3 20.4 V G96 – Mt. Lemmon Survey MPS 229308
2007 11 20.22669 03 08 11.68 +29 58 55.9 20.4 V G96 – Mt. Lemmon Survey MPS 229308
2007 11 20.23248 03 08 11.36 +29 58 54.1 20.4 V G96 – Mt. Lemmon Survey MPS 229308
2007 11 20.23826 03 08 11.04 +29 58 52.7 20.3 V G96 – Mt. Lemmon Survey MPS 229308
2007 11 20.26199 03 08 09.74 +29 58 46.8 20.3 V G96 – Mt. Lemmon Survey MPS 229308
2007 11 20.26481 03 08 09.60 +29 58 46.2 20.6 V G96 – Mt. Lemmon Survey MPS 229308
2007 11 20.26765 03 08 09.42 +29 58 45.1 20.7 V G96 – Mt. Lemmon Survey MPS 229308
2007 11 20.27046 03 08 09.27 +29 58 44.9 20.3 V G96 – Mt. Lemmon Survey MPS 229308
2007 11 21.21905 03 07 19.02 +29 54 43.4 20.4 V G96 – Mt. Lemmon Survey MPS 229308
2007 11 21.22371 03 07 18.76 +29 54 41.9 20.3 V G96 – Mt. Lemmon Survey MPS 229308
2007 11 21.22840 03 07 18.51 +29 54 40.8 20.6 V G96 – Mt. Lemmon Survey MPS 229308
2007 11 21.23312 03 07 18.22 +29 54 39.7 20.4 V G96 – Mt. Lemmon Survey MPS 229308
2007 11 21.41914 03 07 08.04 +29 53 51.6 20.0 V G96 – Mt. Lemmon Survey MPS 229308
2007 11 21.42279 03 07 07.93 +29 53 51.1 20.4 V G96 – Mt. Lemmon Survey MPS 229308
2007 11 21.42663 03 07 07.68 +29 53 49.0 20.5 V G96 – Mt. Lemmon Survey MPS 229308
2007 11 21.43035 03 07 07.46 +29 53 48.1 20.2 V G96 – Mt. Lemmon Survey MPS 229308
2012 09 22.23979 23 58 34.46 +09 10 46.9 20.4 V G96 – Mt. Lemmon Survey MPS 595319
2012 09 22.24604 23 58 34.10 +09 10 45.3 20.1 V G96 – Mt. Lemmon Survey MPS 595319
2012 09 22.25234 23 58 33.81 +09 10 45.3 20.4 V G96 – Mt. Lemmon Survey MPS 595319
2012 09 22.25856 23 58 33.56 +09 10 43.2 20.6 V G96 – Mt. Lemmon Survey MPS 595319
2013 12 04.42972 06 58 50.417 +30 42 51.98 21.1 w F51 – Pan-STARRS 1, Haleakala MPS 815511
2013 12 04.44367 06 58 49.838 +30 42 52.48 20.8 w F51 – Pan-STARRS 1, Haleakala MPS 815511
2013 12 04.45766 06 58 49.281 +30 42 53.03 21.1 w F51 – Pan-STARRS 1, Haleakala MPS 815511
2013 12 04.47165 06 58 48.686 +30 42 53.66 21.3 w F51 – Pan-STARRS 1, Haleakala MPS 815511
2015 01 20.59254 12 18 32.683 -07 53 12.42 22.5 w F51 – Pan-STARRS 1, Haleakala MPS 608602
2015 01 20.60385 12 18 32.740 -07 53 14.94 22.2 w F51 – Pan-STARRS 1, Haleakala MPS 608602
2015 01 20.61510 12 18 32.807 -07 53 17.75 22.4 w F51 – Pan-STARRS 1, Haleakala MPS 608602
2015 01 20.62636 12 18 32.857 -07 53 20.18 22.2 w F51 – Pan-STARRS 1, Haleakala MPS 608602
2015 01 22.60324 12 18 41.775 -08 00 49.66 22.6 w F51 – Pan-STARRS 1, Haleakala MPS 595319
2015 01 22.61449 12 18 41.804 -08 00 51.99 22.6 w F51 – Pan-STARRS 1, Haleakala MPS 595319
2015 01 22.62577 12 18 41.813 -08 00 54.24 22.2 w F51 – Pan-STARRS 1, Haleakala MPS 595319
2015 01 22.63707 12 18 41.827 -08 00 56.79 22.5 w F51 – Pan-STARRS 1, Haleakala MPS 595319
2015 01 23.53914 12 18 44.386 -08 04 11.77 22.2 w F51 – Pan-STARRS 1, Haleakala MPS 608602
2015 01 23.55449 12 18 44.404 -08 04 15.62 22.3 w F51 – Pan-STARRS 1, Haleakala MPS 608602
2015 01 23.56988 12 18 44.398 -08 04 18.70 22.1 w F51 – Pan-STARRS 1, Haleakala MPS 608602
2015 01 23.58528 12 18 44.412 -08 04 21.98 22.1 w F51 – Pan-STARRS 1, Haleakala MPS 608602
2015 02 16.50107 12 13 34.710 -08 51 56.65 21.8 w F51 – Pan-STARRS 1, Haleakala MPS 595319
2015 02 16.51379 12 13 34.346 -08 51 57.01 21.8 w F51 – Pan-STARRS 1, Haleakala MPS 595319
2015 02 16.52648 12 13 33.960 -08 51 57.22 21.6 w F51 – Pan-STARRS 1, Haleakala MPS 595319
2015 03 22.40252 11 50 20.370 -07 48 43.72 21.1 w F51 – Pan-STARRS 1, Haleakala MPS 595319
2015 03 22.41639 11 50 19.698 -07 48 40.93 21.2 w F51 – Pan-STARRS 1, Haleakala MPS 595319
2015 03 22.43022 11 50 19.024 -07 48 37.85 21.2 w F51 – Pan-STARRS 1, Haleakala MPS 595319
2015 03 23.43136 11 49 31.805 -07 45 00.37 21.3 w F51 – Pan-STARRS 1, Haleakala MPS 595319
2015 03 23.44526 11 49 31.115 -07 44 57.30 21.3 w F51 – Pan-STARRS 1, Haleakala MPS 595319
2015 03 23.45914 11 49 30.474 -07 44 54.11 21.4 w F51 – Pan-STARRS 1, Haleakala MPS 595319
2015 03 23.47296 11 49 29.790 -07 44 51.13 21.3 w F51 – Pan-STARRS 1, Haleakala MPS 595319
2017 07 26.47327 21 34 27.267 -14 32 34.64 21.3 w F51 – Pan-STARRS 1, Haleakala MPS 806546
2017 07 26.48425 21 34 26.774 -14 32 35.58 21.3 w F51 – Pan-STARRS 1, Haleakala MPS 806546
2017 07 26.49519 21 34 26.270 -14 32 36.55 21.3 w F51 – Pan-STARRS 1, Haleakala MPS 806546
2017 08 15.42185 21 18 30.081 -15 04 55.22 20.9 i F51 – Pan-STARRS 1, Haleakala MPS 810256
2017 08 15.43358 21 18 29.494 -15 04 56.54 20.5 i F51 – Pan-STARRS 1, Haleakala MPS 810256
2017 08 15.44530 21 18 28.885 -15 04 57.54 21.0 i F51 – Pan-STARRS 1, Haleakala MPS 810256
2017 08 17.38029 21 16 53.816 -15 08 02.93 21.3 w F51 – Pan-STARRS 1, Haleakala MPS 810256
2017 08 17.39505 21 16 53.079 -15 08 04.30 21.0 w F51 – Pan-STARRS 1, Haleakala MPS 810256
2017 08 17.40982 21 16 52.328 -15 08 05.67 21.1 w F51 – Pan-STARRS 1, Haleakala MPS 810256
2017 08 17.42457 21 16 51.588 -15 08 07.15 21.0 w F51 – Pan-STARRS 1, Haleakala MPS 810256
2017 08 19.38674 21 15 16.171 -15 11 09.24 21.0 w F51 – Pan-STARRS 1, Haleakala MPS 812064
2017 08 19.40153 21 15 15.434 -15 11 10.73 21.1 w F51 – Pan-STARRS 1, Haleakala MPS 812064
2017 08 19.41629 21 15 14.699 -15 11 12.04 21.1 w F51 – Pan-STARRS 1, Haleakala MPS 812064
2017 08 19.43104 21 15 13.964 -15 11 13.37 21.1 w F51 – Pan-STARRS 1, Haleakala MPS 812064
2017 09 13.31597 20 58 55.523 -15 34 16.84 21.7 w F51 – Pan-STARRS 1, Haleakala MPS 815511
2017 09 13.32959 20 58 55.141 -15 34 17.10 21.6 w F51 – Pan-STARRS 1, Haleakala MPS 815511
2017 09 13.34318 20 58 54.752 -15 34 17.36 21.7 w F51 – Pan-STARRS 1, Haleakala MPS 815511
2017 09 13.35677 20 58 54.373 -15 34 17.47 21.8 w F51 – Pan-STARRS 1, Haleakala MPS 815511
2018 10 15.61626 02 56 23.876 +28 52 30.86 20.9 w F52 – Pan-STARRS 2, Haleakala MPS 931130
2018 10 15.62604 02 56 23.480 +28 52 30.42 21.1 w F52 – Pan-STARRS 2, Haleakala MPS 931130
2018 10 15.63090 02 56 23.255 +28 52 30.37 20.8 w F52 – Pan-STARRS 2, Haleakala MPS 931130
2018 11 05.04785 02 39 44.16 +28 14 21.2 21.1 R 950 – La Palma MPS 937124
2018 11 05.05160 02 39 43.95 +28 14 20.4 21.4 R 950 – La Palma MPS 937124
2018 11 05.05531 02 39 43.73 +28 14 19.5 21.4 R 950 – La Palma MPS 937124
2018 11 05.05905 02 39 43.53 +28 14 18.7 21.1 R 950 – La Palma MPS 937124
2018 11 05.34689 02 39 28.372 +28 13 18.70 20.4 w F52 – Pan-STARRS 2, Haleakala MPS 937124
2018 11 05.35825 02 39 27.731 +28 13 16.38 20.6 w F52 – Pan-STARRS 2, Haleakala MPS 937124
2018 11 05.36958 02 39 27.106 +28 13 14.01 20.7 w F52 – Pan-STARRS 2, Haleakala MPS 937124
2018 11 05.38090 02 39 26.470 +28 13 11.58 20.6 w F52 – Pan-STARRS 2, Haleakala MPS 937124
2018 11 07.26462 02 37 45.97 +28 06 17.9 20.7 G G96 – Mt. Lemmon Survey MPS 937124
2018 11 07.26875 02 37 45.78 +28 06 16.5 20.7 G G96 – Mt. Lemmon Survey MPS 937124
2018 11 07.27168 02 37 45.58 +28 06 16.0 20.8 G G96 – Mt. Lemmon Survey MPS 937124
2018 11 07.27454 02 37 45.45 +28 06 15.3 20.7 G G96 – Mt. Lemmon Survey MPS 937124
2018 11 07.27748 02 37 45.27 +28 06 14.6 20.6 G G96 – Mt. Lemmon Survey MPS 937124
2018 11 07.28034 02 37 45.11 +28 06 14.2 20.9 G G96 – Mt. Lemmon Survey MPS 937124
2018 11 07.28327 02 37 44.96 +28 06 13.3 20.6 G G96 – Mt. Lemmon Survey MPS 937124
2018 11 07.28615 02 37 44.81 +28 06 12.5 20.5 G G96 – Mt. Lemmon Survey MPS 937124
2018 11 29.14876 02 20 44.79 +26 22 14.8 21.2 G G96 – Mt. Lemmon Survey MPS 967100
2018 11 29.15431 02 20 44.58 +26 22 13.8 21.0 G G96 – Mt. Lemmon Survey MPS 967100
2018 11 29.15987 02 20 44.40 +26 22 11.8 21.3 G G96 – Mt. Lemmon Survey MPS 967100
2018 11 29.16543 02 20 44.17 +26 22 10.4 21.4 G G96 – Mt. Lemmon Survey MPS 967100
2018 12 10.08580 02 15 36.24 +25 26 34.0 21.0 G G96 – Mt. Lemmon Survey MPS 967100
2018 12 10.09139 02 15 36.09 +25 26 32.6 21.4 G G96 – Mt. Lemmon Survey MPS 967100
2018 12 10.09698 02 15 36.02 +25 26 30.5 21.2 G G96 – Mt. Lemmon Survey MPS 967100
